Starlink 6237

operational
NORAD ID: 57055 Int'l Des: 2023-088 Owner: SPXS Country: US Constellation: starlink
LEOCIRCULAR

About Starlink 6237

Description loading...

Live Position

Loading 3D Globe...

Upcoming Passes

Altitude History

Altitude vs Time

uPlot chart will show altitude changes over time

Two-Line Element Set

1 57055U 23088H 25307.68582975 .00000744 00000-0 70173-4 0 9997
2 57055 43.0041 72.3030 0001151 270.7389 89.3322 15.02534893131412
Epoch: Nov 3, 2025 • Age: 26 hours

Current Status

Altitude 562.9 km
Velocity 7.59 km/s
Sub-Earth Point 42.68°N, 153.6°W
Launch Date Jun 22, 2023
Age 2.3 years
Type internet

Technical Details

Classification Payload
Mass 305.00 kg
Dry Mass 290.00 kg
Total Mass 305.00 kg
Length 0.20 m
Diameter 2.80 m
Span 9.00 m
Shape Box + pan
Manufacturer SPXS
Bus Type Starlink
Phase Status In Orbit
Owner/State SPXS/US

Large Constellations

Loading constellations...